{"data":{"norad_id":48280,"epoch":"2026-09-19T18:47:02.787360Z","epoch_age_seconds":95583,"freshness":"FRESH","line1":"1 48280U 21036E   26262.78267115  .00003254  00000+0  11652-3 0  9990","line2":"2 48280  53.1599 277.9183 0001628  67.8647 292.2527 15.31717463297777","mean_motion":15.31717463,"eccentricity":0.0001628,"inclination_deg":53.1599,"raan_deg":277.9183,"arg_perigee_deg":67.8647,"mean_anomaly_deg":292.2527,"bstar":0.00011652,"rev_number":29777,"period_min":94.012116123533,"perigee_km":469.57295072578,"apogee_km":471.80292812606,"semimajor_km":6848.8249394259,"source":"CELESTRAK","updated_at":"2026-09-20T09:00:38.928045Z"}}